Home   Weather   Falkensee   Past weeks

Flag for Germany Past Weather in Falkensee, Brandenburg, Germany — Yesterday and Last 2 Weeks

Now
70 °F

Partly sunny.


Feels Like: 70 °F
Forecast: 58 / 71 °F
Wind: 9 mph from Southwest

Location: Berlin-Tegel

Current Time: Jul 23, 2017 at 12:58:38 pm

Latest Report: Jul 23, 2017 at 12:20 pm


Visibility: N/A

Pressure: 29.89 "Hg

Humidity: 83%

Dew Point: 64 °F

Location of FalkenseeLocation

Past Weather in Falkensee — Graph

°F

Falkensee Temperature Yesterday

Maximum temperature yesterday: 81 °F (at 1:20 pm)
Minimum temperature yesterday: 63 °F (at 4:20 am)
Average temperature yesterday: 69 °F

High & Low Weather Summary for the Past Weeks

 TemperatureHumidityPressure
High82 °F (Jul 19, 4:20 pm)100% (Jul 16, 4:54 am)30.21 "Hg (Jul 16, 4:54 am)
Low52 °F (Jul 13, 3:50 am)34% (Jul 9, 7:20 pm)29.65 "Hg (Jul 12, 6:20 pm)
Average66 °F72%29.96 "Hg
* Reported Jul 8 10:20 am — Jul 23 10:56 am, Falkensee. Weather by CustomWeather, © 2017

Note: Actual official high and low records may vary slightly from our data, if they occured in-between our weather recording intervals... More about our weather records

Advertising

Falkensee Weather History for the Previous 24 Hours

Scroll right to see more
 ConditionsComfort  
Time TempWeatherWind HumidityBarometerVisibility
10:56 am
Sun, Jul 23
68 °FBroken clouds.6 mph94%29.89 "HgN/A
10:50 am68 °FSprinkles. Broken clouds.5 mph88%29.89 "Hg6 mi
10:20 am66 °FLight rain. Partly sunny.2 mph94%29.89 "HgN/A
10:06 am66 °FLight rain. Broken clouds.5 mph94%29.89 "HgN/A
9:50 am66 °FLight rain. Partly sunny.5 mph94%29.86 "HgN/A
9:20 am66 °FThundershowers. Broken clouds.5 mph88%29.89 "Hg6 mi
8:50 am66 °FThunderstorms. Broken clouds.7 mph94%29.89 "Hg2 mi
7:50 am64 °FPartly sunny.7 mph94%29.86 "Hg5 mi
7:20 am64 °FPartly sunny.8 mph94%29.86 "Hg4 mi
6:50 am64 °FPartly sunny.7 mph94%29.89 "Hg4 mi
6:20 am64 °FPartly sunny.6 mph94%29.89 "Hg4 mi
5:50 am64 °FFog.7 mph94%29.89 "Hg3 mi
5:20 am64 °FFog.7 mph94%29.89 "Hg3 mi
4:50 am64 °FLow clouds.3 mph94%29.89 "Hg4 mi
4:20 am64 °FLow clouds.3 mph94%29.89 "Hg4 mi
3:20 am64 °FPassing clouds.3 mph94%29.89 "Hg5 mi
2:50 am66 °FPassing clouds.3 mph94%29.89 "Hg5 mi
2:20 am66 °FPassing clouds.5 mph94%29.89 "Hg5 mi
1:50 am66 °FPassing clouds.5 mph94%29.92 "Hg5 mi
1:20 am66 °FLow clouds.7 mph94%29.92 "Hg5 mi
12:50 am66 °FLow clouds.7 mph94%29.92 "HgN/A
12:20 am66 °FPassing clouds.7 mph94%29.92 "HgN/A
11:50 pm
Sat, Jul 22
64 °FPassing clouds.5 mph94%29.92 "HgN/A
11:20 pm64 °FPassing clouds.5 mph94%29.92 "HgN/A
10:50 pm64 °FClear.6 mph94%29.92 "Hg10 mi
10:20 pm64 °FPassing clouds.3 mph94%29.95 "HgN/A
9:50 pm66 °FPassing clouds.3 mph88%29.92 "HgN/A
9:20 pm66 °FPassing clouds.3 mph88%29.92 "HgN/A
8:50 pm68 °FPartly sunny.1 mph83%29.92 "HgN/A
8:20 pm68 °FPartly sunny.8 mph88%29.92 "HgN/A
7:50 pm68 °FBroken clouds.9 mph88%29.92 "HgN/A
7:20 pm70 °FBroken clouds.8 mph83%29.92 "HgN/A
6:50 pm68 °FBroken clouds.5 mph88%29.92 "HgN/A
6:20 pm66 °FBroken clouds.8 mph88%29.92 "HgN/A
5:55 pm66 °FSprinkles. Broken clouds.8 mph94%29.92 "HgN/A
5:20 pm66 °FThunderstorms. Broken clouds.5 mph94%29.95 "Hg2 mi
4:56 pm66 °FThunderstorms. Partly sunny.7 mph94%29.95 "Hg2 mi
4:50 pm66 °FThundershowers. Partly sunny.7 mph94%29.92 "HgN/A
4:37 pm66 °FThunderstorms. Partly sunny.3 mph94%29.92 "Hg4 mi
4:20 pm66 °FThunderstorms. Broken clouds.9 mph94%29.92 "HgN/A
3:50 pm66 °FThundershowers. Broken clouds.9 mph94%29.92 "HgN/A
3:01 pm75 °FThunderstorms. Broken clouds.12 mph69%29.89 "Hg5 mi
2:50 pm79 °FSprinkles. Broken clouds.12 mph58%29.86 "HgN/A
2:20 pm81 °FBroken clouds.12 mph54%29.89 "HgN/A
1:50 pm81 °FScattered clouds.15 mph51%29.89 "HgN/A
1:20 pm81 °FBroken clouds.14 mph51%29.92 "HgN/A
12:50 pm79 °FPartly sunny.12 mph54%29.92 "HgN/A
12:20 pm77 °FPassing clouds.13 mph57%29.92 "HgN/A
Weather by CustomWeather, © 2017

See weather overviewHow to use our weather pages